Precipitable_Water
0.31 0.32 0.31 0.31 0.30 0.30 0.30 0.29 0.31 0.34 0.40 0.42 0.39 0.37 0.39 0.39 0.32 0.29 0.41 0.48 0.45 0.50 0.56 0.63 0.68 0.75 0.79 0.83 0.89 0.97 1.01 1.04 1.07 1.07 1.06 1.09 1.12 1.19 1.22 1.30 1.44 1.52 1.56 1.56 1.62 1.73 1.82 1.91 1.81 1.74 1.72 1.72 1.73 1.66 1.64 1.63 1.65 1.67 1.67 1.61 1.55 1.52 1.46 1.42 1.41 1.47 1.51 1.52 1.53 1.56 1.59 1.59 1.58 1.55 1.53 1.53 1.55 1.58 1.65 1.71 1.77 1.80 1.85 1.88 1.92 1.97 2.01
0.30 0.31 0.28 0.28 0.28 0.30 0.30 0.29 0.31 0.36 0.38 0.39 0.37 0.34 0.39 0.38 0.36 0.38 0.44 0.49 0.49 0.59 0.64 0.69 0.76 0.86 0.88 0.88 0.92 0.98 0.99 1.00 1.06 1.07 1.05 1.07 1.12 1.17 1.19 1.26 1.37 1.49 1.55 1.63 1.69 1.73 1.80 1.85 1.90 1.82 1.80 1.76 1.76 1.71 1.72 1.80 1.79 1.73 1.69 1.66 1.63 1.55 1.48 1.43 1.44 1.48 1.51 1.53 1.51 1.52 1.54 1.56 1.60 1.62 1.62 1.61 1.58 1.57 1.61 1.67 1.74 1.81 1.84 1.90 1.92 1.90 1.89
0.29 0.32 0.32 0.29 0.25 0.27 0.27 0.31 0.30 0.32 0.36 0.36 0.36 0.35 0.41 0.41 0.41 0.46 0.50 0.51 0.53 0.74 0.83 0.82 0.90 0.89 0.90 0.88 0.83 0.84 0.93 1.01 1.06 1.06 1.05 1.08 1.15 1.22 1.25 1.29 1.36 1.45 1.49 1.57 1.66 1.71 1.73 1.77 1.84 1.91 1.90 1.84 1.81 1.75 1.72 1.74 1.81 1.87 1.82 1.74 1.65 1.60 1.54 1.52 1.50 1.52 1.54 1.54 1.54 1.52 1.55 1.59 1.62 1.64 1.65 1.66 1.62 1.60 1.59 1.59 1.63 1.70 1.75 1.76 1.78 1.79 1.82
0.32 0.35 0.34 0.33 0.33 0.31 0.31 0.32 0.34 0.30 0.30 0.32 0.35 0.36 0.42 0.42 0.41 0.46 0.50 0.47 0.49 0.74 0.88 0.86 0.85 0.84 0.82 0.80 0.80 0.80 0.88 0.97 1.06 1.07 1.06 1.09 1.15 1.19 1.23 1.29 1.38 1.45 1.49 1.52 1.57 1.65 1.75 1.80 1.80 1.81 1.89 1.92 1.85 1.81 1.78 1.78 1.83 1.91 1.90 1.85 1.77 1.64 1.54 1.49 1.47 1.50 1.54 1.56 1.56 1.57 1.59 1.58 1.60 1.61 1.63 1.62 1.58 1.57 1.56 1.53 1.54 1.59 1.60 1.62 1.66 1.69 1.73
0.32 0.36 0.37 0.34 0.34 0.31 0.28 0.35 0.38 0.38 0.38 0.40 0.45 0.50 0.51 0.49 0.48 0.44 0.41 0.45 0.61 0.72 0.80 0.73 0.76 0.77 0.78 0.77 0.78 0.81 0.88 0.97 1.04 1.08 1.09 1.12 1.18 1.21 1.20 1.24 1.32 1.40 1.46 1.51 1.56 1.63 1.71 1.77 1.81 1.83 1.87 1.88 1.87 1.90 1.90 1.90 1.91 1.87 1.83 1.83 1.83 1.76 1.61 1.49 1.49 1.55 1.57 1.55 1.56 1.56 1.56 1.58 1.58 1.58 1.56 1.55 1.56 1.57 1.57 1.59 1.59 1.57 1.59 1.58 1.56 1.60 1.61
0.31 0.35 0.35 0.36 0.31 0.24 0.26 0.44 0.48 0.49 0.42 0.44 0.43 0.46 0.49 0.51 0.49 0.47 0.51 0.54 0.64 0.69 0.70 0.65 0.66 0.68 0.73 0.78 0.87 0.94 0.92 0.93 1.02 1.12 1.17 1.17 1.21 1.23 1.25 1.27 1.32 1.38 1.43 1.47 1.54 1.63 1.69 1.78 1.85 1.91 1.94 1.92 1.91 1.94 1.94 1.96 1.94 1.93 1.88 1.82 1.82 1.84 1.79 1.67 1.61 1.62 1.64 1.64 1.59 1.57 1.57 1.57 1.59 1.61 1.61 1.60 1.66 1.70 1.69 1.67 1.66 1.68 1.69 1.66 1.67 1.70 1.72
0.30 0.33 0.33 0.29 0.24 0.25 0.38 0.42 0.53 0.58 0.55 0.52 0.51 0.56 0.58 0.57 0.58 0.56 0.55 0.58 0.61 0.68 0.71 0.70 0.70 0.75 0.82 0.90 0.91 0.94 1.01 1.03 1.03 1.07 1.13 1.15 1.15 1.18 1.22 1.24 1.29 1.35 1.39 1.40 1.42 1.47 1.60 1.76 1.86 1.91 1.91 1.97 2.00 1.97 1.97 1.94 1.96 1.96 1.95 1.89 1.82 1.80 1.80 1.81 1.76 1.69 1.67 1.66 1.63 1.63 1.63 1.63 1.64 1.62 1.63 1.67 1.70 1.72 1.69 1.68 1.69 1.69 1.67 1.66 1.69 1.69 1.67
0.34 0.31 0.31 0.23 0.26 0.36 0.40 0.44 0.50 0.62 0.61 0.56 0.50 0.52 0.60 0.64 0.62 0.58 0.54 0.63 0.69 0.72 0.74 0.77 0.80 0.80 0.85 0.92 0.94 0.96 1.02 1.05 1.05 1.06 1.11 1.17 1.19 1.18 1.23 1.24 1.27 1.32 1.35 1.38 1.40 1.43 1.52 1.62 1.78 1.89 1.91 1.97 1.97 1.98 2.01 1.97 1.95 1.96 1.98 1.93 1.87 1.87 1.86 1.87 1.84 1.80 1.71 1.66 1.67 1.68 1.71 1.74 1.74 1.71 1.68 1.69 1.67 1.71 1.71 1.72 1.75 1.74 1.73 1.72 1.69 1.66 1.63
0.28 0.30 0.29 0.28 0.35 0.34 0.39 0.42 0.47 0.50 0.44 0.44 0.42 0.39 0.51 0.65 0.69 0.67 0.59 0.62 0.65 0.67 0.70 0.75 0.77 0.81 0.82 0.74 0.79 0.97 1.01 1.04 1.09 1.10 1.16 1.23 1.23 1.25 1.30 1.32 1.33 1.37 1.41 1.43 1.48 1.48 1.47 1.53 1.58 1.71 1.90 1.97 1.97 1.99 2.02 2.01 1.98 1.98 2.00 1.94 1.90 1.87 1.89 1.91 1.94 1.95 1.84 1.74 1.74 1.78 1.77 1.71 1.70 1.72 1.74 1.75 1.78 1.81 1.74 1.73 1.71 1.76 1.76 1.80 1.77 1.68 1.64
0.34 0.31 0.30 0.30 0.29 0.25 0.38 0.47 0.54 0.56 0.55 0.54 0.56 0.49 0.48 0.66 0.73 0.72 0.64 0.60 0.61 0.64 0.68 0.68 0.71 0.73 0.59 0.48 0.61 0.89 1.03 1.09 1.07 1.13 1.19 1.27 1.31 1.32 1.32 1.35 1.38 1.41 1.44 1.46 1.48 1.45 1.44 1.49 1.58 1.65 1.74 1.86 1.95 1.96 2.00 2.07 2.08 1.97 1.96 1.96 1.98 1.94 1.87 1.91 1.96 1.97 1.91 1.85 1.82 1.80 1.79 1.74 1.72 1.74 1.78 1.79 1.79 1.85 1.83 1.81 1.78 1.74 1.70 1.71 1.76 1.75 1.72
0.34 0.32 0.29 0.28 0.26 0.31 0.46 0.52 0.55 0.61 0.64 0.60 0.58 0.46 0.39 0.63 0.72 0.74 0.69 0.61 0.63 0.62 0.62 0.65 0.68 0.56 0.39 0.38 0.55 0.85 0.98 1.07 1.13 1.12 1.18 1.25 1.30 1.34 1.34 1.32 1.31 1.35 1.39 1.42 1.42 1.44 1.44 1.43 1.53 1.63 1.66 1.69 1.76 1.83 1.92 1.97 1.99 2.00 2.02 1.99 2.03 2.04 1.98 1.98 1.96 1.91 1.85 1.83 1.88 1.89 1.84 1.83 1.82 1.79 1.82 1.82 1.87 1.95 2.02 2.02 1.95 1.95 1.84 1.76 1.75 1.76 1.77
0.35 0.33 0.30 0.28 0.32 0.35 0.49 0.55 0.59 0.63 0.66 0.61 0.50 0.33 0.33 0.59 0.71 0.74 0.70 0.62 0.63 0.66 0.68 0.68 0.60 0.51 0.38 0.42 0.64 0.91 1.02 1.11 1.18 1.17 1.17 1.21 1.26 1.30 1.35 1.38 1.40 1.40 1.41 1.39 1.38 1.38 1.36 1.39 1.53 1.60 1.60 1.61 1.63 1.75 1.86 1.94 1.97 1.95 1.98 2.01 2.08 2.15 2.12 2.02 1.94 1.93 1.92 1.91 1.96 1.96 1.91 1.89 1.90 1.92 1.95 1.93 1.92 2.02 2.02 1.97 1.88 1.83 1.78 1.76 1.78 1.83 1.83
0.37 0.35 0.33 0.34 0.36 0.47 0.54 0.56 0.60 0.60 0.62 0.51 0.36 0.30 0.41 0.60 0.68 0.74 0.72 0.66 0.66 0.68 0.64 0.66 0.52 0.60 0.65 0.72 0.88 0.99 1.06 1.09 1.16 1.23 1.26 1.27 1.30 1.33 1.37 1.39 1.46 1.42 1.39 1.37 1.35 1.36 1.37 1.44 1.56 1.57 1.60 1.58 1.58 1.68 1.81 1.91 1.94 1.97 2.05 2.11 2.10 2.12 2.10 2.03 1.96 1.92 1.92 1.93 1.93 1.94 1.93 1.90 1.93 2.00 2.07 2.04 2.00 1.94 1.92 1.93 1.89 1.85 1.79 1.75 1.72 1.71 1.72
0.36 0.38 0.34 0.35 0.42 0.53 0.60 0.64 0.63 0.64 0.50 0.36 0.33 0.51 0.65 0.65 0.70 0.76 0.74 0.67 0.70 0.70 0.66 0.65 0.64 0.69 0.80 0.89 0.96 1.01 1.05 1.09 1.16 1.20 1.23 1.26 1.31 1.37 1.41 1.43 1.42 1.37 1.35 1.36 1.38 1.40 1.42 1.47 1.62 1.60 1.73 1.87 1.74 1.71 1.87 1.92 2.03 2.14 2.13 2.14 2.14 2.14 2.11 2.02 1.94 1.88 1.86 1.88 1.89 1.91 1.95 1.96 1.95 2.00 2.00 1.97 1.91 1.84 1.85 1.84 1.82 1.79 1.76 1.73 1.72 1.79 1.89
0.42 0.41 0.37 0.35 0.31 0.54 0.65 0.63 0.62 0.67 0.46 0.51 0.64 0.66 0.70 0.75 0.74 0.73 0.75 0.73 0.74 0.76 0.67 0.70 0.70 0.72 0.79 0.86 0.92 1.01 1.08 1.10 1.12 1.17 1.18 1.18 1.22 1.27 1.31 1.34 1.39 1.37 1.34 1.36 1.39 1.41 1.45 1.52 1.65 1.82 2.02 1.84 1.87 1.85 1.86 1.95 2.09 2.08 2.10 2.09 2.09 2.04 1.98 1.90 1.89 1.92 1.94 1.91 1.89 1.92 1.92 1.93 1.89 1.85 1.87 1.85 1.83 1.84 1.80 1.77 1.73 1.67 1.64 1.64 1.63 1.62 1.66
0.39 0.39 0.35 0.37 0.50 0.60 0.74 0.66 0.53 0.65 0.67 0.75 0.77 0.73 0.70 0.77 0.78 0.74 0.74 0.75 0.75 0.76 0.69 0.66 0.67 0.74 0.79 0.84 0.91 0.99 1.08 1.14 1.17 1.18 1.20 1.21 1.22 1.27 1.33 1.35 1.36 1.36 1.34 1.39 1.43 1.47 1.53 1.54 1.62 1.64 1.91 1.80 1.80 1.80 1.88 1.96 1.99 2.01 1.98 1.96 1.95 1.93 1.93 1.96 2.00 1.98 1.95 1.91 1.89 1.90 1.86 1.83 1.80 1.75 1.74 1.76 1.79 1.77 1.73 1.68 1.63 1.64 1.65 1.64 1.62 1.55 1.50
0.45 0.42 0.46 0.55 0.63 0.67 0.68 0.69 0.70 0.72 0.78 0.80 0.77 0.73 0.74 0.73 0.76 0.83 0.76 0.74 0.76 0.75 0.70 0.68 0.69 0.69 0.78 0.82 0.90 0.92 1.00 1.11 1.17 1.16 1.15 1.17 1.20 1.25 1.29 1.31 1.36 1.35 1.35 1.39 1.45 1.47 1.50 1.53 1.55 1.58 1.61 1.70 1.70 1.66 1.80 1.92 1.93 1.95 1.97 1.97 1.95 1.91 1.92 1.95 1.94 1.93 1.92 1.90 1.87 1.86 1.85 1.82 1.75 1.72 1.74 1.75 1.70 1.72 1.69 1.63 1.60 1.56 1.55 1.57 1.54 1.52 1.50
0.60 0.61 0.62 0.66 0.66 0.67 0.73 0.79 0.82 0.78 0.79 0.82 0.78 0.76 0.75 0.81 0.82 0.82 0.78 0.79 0.78 0.74 0.74 0.68 0.69 0.70 0.75 0.80 0.85 0.92 1.00 1.08 1.17 1.18 1.17 1.19 1.24 1.28 1.31 1.33 1.34 1.36 1.40 1.43 1.44 1.42 1.46 1.52 1.58 1.62 1.62 1.67 1.68 1.72 1.83 1.88 1.90 1.93 1.94 1.93 1.88 1.88 1.93 1.91 1.91 1.91 1.87 1.86 1.85 1.85 1.88 1.87 1.84 1.76 1.71 1.68 1.63 1.59 1.55 1.51 1.49 1.47 1.45 1.44 1.40 1.34 1.27
0.50 0.47 0.62 0.60 0.63 0.73 0.76 0.78 0.84 0.86 0.84 0.82 0.80 0.78 0.80 0.83 0.86 0.84 0.86 0.82 0.78 0.77 0.77 0.72 0.68 0.71 0.78 0.79 0.83 0.87 0.92 1.01 1.10 1.15 1.16 1.18 1.22 1.23 1.25 1.30 1.33 1.34 1.36 1.37 1.38 1.40 1.40 1.50 1.55 1.60 1.67 1.82 1.79 1.81 1.87 1.92 1.93 1.95 1.93 1.87 1.81 1.81 1.81 1.82 1.87 1.89 1.82 1.76 1.75 1.71 1.76 1.75 1.73 1.71 1.69 1.66 1.60 1.53 1.49 1.43 1.36 1.33 1.31 1.27 1.20 1.12 1.07
0.51 0.55 0.67 0.73 0.78 0.80 0.82 0.80 0.78 0.80 0.83 0.85 0.85 0.85 0.87 0.87 0.88 0.83 0.82 0.83 0.80 0.83 0.77 0.78 0.75 0.76 0.81 0.79 0.81 0.82 0.85 0.91 1.02 1.13 1.17 1.19 1.21 1.24 1.27 1.29 1.31 1.30 1.31 1.33 1.35 1.39 1.42 1.49 1.55 1.61 1.64 1.67 1.71 1.81 1.83 1.88 1.88 1.88 1.81 1.78 1.81 1.78 1.76 1.72 1.65 1.66 1.65 1.67 1.66 1.65 1.66 1.64 1.61 1.61 1.60 1.55 1.43 1.33 1.24 1.18 1.16 1.18 1.18 1.14 1.08 1.03 0.99
0.65 0.70 0.76 0.76 0.79 0.82 0.84 0.88 0.88 0.88 0.87 0.87 0.87 0.89 0.89 0.89 0.86 0.82 0.81 0.83 0.80 0.78 0.75 0.79 0.79 0.76 0.80 0.85 0.85 0.82 0.82 0.86 0.96 1.06 1.13 1.18 1.19 1.21 1.20 1.24 1.27 1.27 1.28 1.29 1.33 1.35 1.38 1.45 1.52 1.54 1.61 1.64 1.68 1.69 1.70 1.73 1.71 1.65 1.61 1.61 1.62 1.65 1.66 1.67 1.67 1.69 1.67 1.65 1.64 1.61 1.59 1.58 1.53 1.47 1.39 1.34 1.30 1.27 1.29 1.27 1.19 1.11 1.10 1.10 1.08 1.03 0.98
0.56 0.59 0.69 0.71 0.59 0.63 0.76 0.83 0.86 0.88 0.90 0.89 0.89 0.90 0.88 0.86 0.82 0.79 0.74 0.76 0.80 0.78 0.78 0.76 0.78 0.74 0.78 0.86 0.86 0.84 0.85 0.87 0.92 0.97 1.06 1.14 1.15 1.17 1.22 1.23 1.25 1.25 1.25 1.23 1.25 1.29 1.33 1.41 1.48 1.50 1.51 1.56 1.62 1.63 1.63 1.64 1.64 1.58 1.56 1.56 1.55 1.55 1.57 1.56 1.55 1.56 1.56 1.55 1.52 1.45 1.40 1.36 1.35 1.35 1.36 1.31 1.26 1.18 1.13 1.14 1.14 1.13 1.09 1.02 1.00 0.97 0.95
0.53 0.66 0.73 0.76 0.75 0.78 0.83 0.89 0.94 0.95 0.95 0.90 0.85 0.84 0.83 0.85 0.84 0.80 0.73 0.68 0.69 0.72 0.78 0.84 0.80 0.78 0.78 0.81 0.86 0.86 0.88 0.90 0.93 0.95 0.98 1.04 1.12 1.18 1.24 1.22 1.23 1.24 1.26 1.26 1.25 1.25 1.33 1.39 1.43 1.48 1.48 1.50 1.53 1.52 1.54 1.58 1.56 1.50 1.46 1.40 1.38 1.38 1.37 1.32 1.32 1.32 1.32 1.31 1.30 1.27 1.25 1.22 1.20 1.17 1.15 1.17 1.16 1.13 1.10 1.08 1.06 1.05 1.03 1.02 1.00 0.97 0.93
0.72 0.77 0.77 0.80 0.75 0.73 0.84 0.91 0.93 0.94 0.98 0.92 0.87 0.86 0.86 0.83 0.83 0.83 0.81 0.78 0.72 0.74 0.79 0.86 0.89 0.86 0.85 0.89 0.89 0.87 0.89 0.93 0.94 0.95 0.97 1.01 1.09 1.17 1.23 1.23 1.24 1.27 1.29 1.30 1.26 1.26 1.29 1.30 1.32 1.33 1.33 1.38 1.43 1.41 1.39 1.35 1.32 1.27 1.25 1.22 1.19 1.15 1.11 1.12 1.14 1.15 1.15 1.13 1.10 1.07 1.05 1.03 1.02 1.01 1.01 1.02 1.06 1.11 1.11 1.08 1.05 1.03 0.99 0.94 0.90 0.85 0.81
0.68 0.82 0.85 0.86 0.83 0.87 0.92 0.94 0.96 0.99 0.99 0.90 0.80 0.78 0.79 0.79 0.81 0.85 0.82 0.83 0.86 0.84 0.83 0.85 0.92 0.95 0.95 0.97 0.96 0.92 0.91 0.93 0.96 0.98 1.01 1.01 1.00 1.06 1.15 1.23 1.25 1.25 1.26 1.30 1.31 1.31 1.30 1.28 1.30 1.35 1.36 1.36 1.39 1.39 1.35 1.24 1.17 1.13 1.12 1.11 1.10 1.10 1.03 1.01 0.99 0.99 0.99 0.99 1.00 1.01 1.01 1.01 1.00 1.00 0.98 0.95 0.91 0.90 0.93 0.94 0.90 0.84 0.79 0.75 0.71 0.68 0.65
0.78 0.85 0.92 0.94 0.93 0.92 0.97 0.97 0.94 0.89 0.86 0.84 0.80 0.79 0.82 0.83 0.83 0.83 0.86 0.88 0.90 0.94 0.94 0.94 0.94 1.01 1.03 1.00 0.99 0.98 0.96 0.96 1.00 1.02 1.00 0.97 0.98 1.01 1.08 1.17 1.25 1.28 1.29 1.30 1.32 1.33 1.30 1.29 1.31 1.34 1.36 1.37 1.36 1.34 1.30 1.22 1.20 1.20 1.22 1.22 1.21 1.19 1.19 1.17 1.14 1.11 1.10 1.09 1.08 1.07 1.06 1.02 0.99 0.94 0.89 0.81 0.74 0.70 0.66 0.68 0.71 0.73 0.74 0.72 0.70 0.68 0.68
0.86 0.89 0.88 0.86 0.84 0.87 0.91 0.80 0.76 0.86 0.81 0.81 0.77 0.76 0.81 0.84 0.85 0.86 0.91 0.95 0.96 1.00 1.02 1.04 1.04 1.07 1.09 1.07 1.04 1.04 1.00 1.02 1.02 1.01 1.00 0.99 0.99 1.04 1.11 1.16 1.22 1.25 1.25 1.27 1.29 1.30 1.29 1.32 1.31 1.29 1.28 1.32 1.35 1.37 1.38 1.34 1.31 1.29 1.29 1.27 1.26 1.27 1.26 1.25 1.22 1.20 1.19 1.16 1.12 1.08 1.02 0.97 0.91 0.86 0.80 0.76 0.72 0.69 0.67 0.65 0.64 0.62 0.62 0.67 0.72 0.73 0.72
0.86 0.86 0.81 0.70 0.72 0.75 0.79 0.85 0.86 0.85 0.81 0.79 0.78 0.76 0.81 0.83 0.82 0.83 0.86 0.91 0.95 1.00 1.04 1.08 1.08 1.09 1.06 1.09 1.08 1.07 1.08 1.05 1.02 1.02 1.01 1.02 1.06 1.10 1.12 1.13 1.13 1.15 1.17 1.19 1.22 1.27 1.29 1.32 1.35 1.32 1.30 1.33 1.34 1.35 1.34 1.31 1.28 1.25 1.23 1.20 1.18 1.17 1.16 1.14 1.11 1.09 1.07 1.04 1.00 0.94 0.90 0.88 0.86 0.83 0.80 0.77 0.74 0.72 0.72 0.71 0.68 0.65 0.64 0.66 0.68 0.70 0.70
0.90 0.88 0.86 0.80 0.80 0.86 0.90 0.90 0.86 0.80 0.77 0.81 0.83 0.82 0.81 0.77 0.78 0.80 0.83 0.88 0.94 0.98 0.99 1.05 1.10 1.10 1.08 1.12 1.13 1.10 1.10 1.09 1.06 1.05 1.06 1.08 1.10 1.11 1.12 1.12 1.11 1.11 1.11 1.12 1.16 1.21 1.24 1.25 1.29 1.31 1.34 1.37 1.36 1.38 1.33 1.29 1.24 1.19 1.17 1.16 1.15 1.11 1.06 1.01 0.95 0.89 0.84 0.81 0.78 0.75 0.72 0.71 0.71 0.74 0.77 0.77 0.75 0.74 0.76 0.72 0.70 0.68 0.66 0.64 0.63 0.63 0.67
0.84 0.89 0.87 0.86 0.86 0.86 0.82 0.78 0.79 0.78 0.77 0.81 0.82 0.80 0.80 0.77 0.74 0.76 0.79 0.85 0.90 0.92 0.98 1.04 1.06 1.07 1.09 1.10 1.14 1.14 1.11 1.11 1.12 1.12 1.10 1.10 1.11 1.11 1.11 1.10 1.09 1.07 1.05 1.05 1.09 1.15 1.13 1.14 1.16 1.15 1.19 1.27 1.31 1.28 1.25 1.18 1.14 1.11 1.08 1.05 1.00 0.94 0.87 0.80 0.77 0.76 0.72 0.71 0.70 0.68 0.65 0.63 0.63 0.63 0.63 0.64 0.65 0.68 0.70 0.71 0.71 0.68 0.63 0.63 0.62 0.59 0.58
0.85 0.88 0.87 0.87 0.86 0.85 0.79 0.79 0.81 0.81 0.81 0.84 0.83 0.78 0.77 0.76 0.72 0.72 0.76 0.82 0.88 0.92 0.99 1.02 1.05 1.07 1.08 1.09 1.14 1.16 1.16 1.17 1.17 1.15 1.11 1.10 1.10 1.10 1.09 1.07 1.00 0.97 0.98 1.00 1.03 1.05 1.07 1.16 1.22 1.22 1.21 1.22 1.26 1.24 1.17 1.06 0.95 0.86 0.79 0.76 0.75 0.72 0.70 0.67 0.66 0.65 0.64 0.62 0.62 0.61 0.61 0.61 0.61 0.61 0.62 0.64 0.66 0.67 0.69 0.71 0.70 0.66 0.62 0.58 0.56 0.57 0.60
0.84 0.84 0.83 0.82 0.81 0.80 0.80 0.81 0.80 0.80 0.82 0.86 0.82 0.74 0.71 0.70 0.68 0.70 0.75 0.80 0.88 0.96 1.00 1.03 1.04 1.04 1.07 1.12 1.13 1.13 1.11 1.12 1.13 1.11 1.08 1.06 1.06 1.06 1.06 1.06 1.04 1.01 0.99 1.01 1.05 1.09 1.16 1.21 1.23 1.24 1.26 1.20 1.14 1.09 1.03 0.93 0.84 0.76 0.71 0.67 0.63 0.63 0.62 0.59 0.58 0.58 0.57 0.56 0.56 0.57 0.57 0.56 0.56 0.57 0.57 0.58 0.60 0.62 0.64 0.62 0.58 0.56 0.56 0.56 0.57 0.59 0.63
0.78 0.77 0.77 0.79 0.80 0.79 0.78 0.81 0.78 0.79 0.81 0.81 0.79 0.78 0.77 0.78 0.78 0.77 0.81 0.88 0.95 1.01 1.04 1.05 1.08 1.10 1.12 1.12 1.11 1.10 1.09 1.08 1.09 1.09 1.05 1.07 1.12 1.11 1.13 1.14 1.09 1.04 1.02 1.07 1.09 1.11 1.09 1.07 1.17 1.23 1.22 1.16 1.07 0.95 0.86 0.81 0.79 0.75 0.71 0.65 0.62 0.61 0.59 0.56 0.55 0.55 0.56 0.57 0.56 0.56 0.55 0.55 0.54 0.55 0.54 0.55 0.57 0.59 0.57 0.55 0.55 0.56 0.57 0.57 0.57 0.60 0.63
0.77 0.74 0.76 0.79 0.77 0.73 0.73 0.78 0.82 0.81 0.84 0.85 0.82 0.79 0.78 0.79 0.79 0.80 0.84 0.91 0.96 0.99 1.01 1.05 1.10 1.13 1.14 1.12 1.10 1.09 1.07 1.05 1.06 1.07 1.10 1.13 1.14 1.17 1.18 1.20 1.14 1.06 1.06 1.10 1.08 1.01 1.02 1.05 1.08 1.05 1.03 0.98 0.94 0.86 0.78 0.74 0.70 0.68 0.66 0.62 0.59 0.58 0.57 0.57 0.56 0.54 0.52 0.51 0.52 0.53 0.52 0.49 0.47 0.49 0.51 0.53 0.55 0.57 0.57 0.57 0.57 0.57 0.56 0.58 0.60 0.62 0.63
0.87 0.86 0.87 0.86 0.86 0.85 0.83 0.80 0.81 0.83 0.83 0.81 0.80 0.80 0.82 0.82 0.81 0.81 0.86 0.89 0.91 0.97 1.04 1.07 1.09 1.10 1.11 1.09 1.08 1.07 1.04 1.01 1.04 1.05 1.07 1.10 1.08 1.12 1.14 1.13 1.07 0.99 0.99 0.99 0.94 0.84 0.83 0.91 1.02 1.00 0.93 0.86 0.82 0.76 0.71 0.66 0.63 0.63 0.63 0.62 0.60 0.58 0.57 0.57 0.55 0.53 0.49 0.49 0.49 0.47 0.47 0.47 0.49 0.52 0.53 0.54 0.55 0.56 0.56 0.57 0.58 0.57 0.55 0.55 0.57 0.60 0.60
0.90 0.89 0.90 0.91 0.91 0.91 0.88 0.87 0.87 0.87 0.86 0.82 0.80 0.80 0.81 0.81 0.81 0.82 0.84 0.88 0.96 1.02 1.03 1.05 1.07 1.07 1.05 1.03 1.00 1.02 1.05 1.05 1.03 1.04 1.07 1.05 1.06 1.10 1.07 1.00 0.89 0.84 0.84 0.81 0.79 0.78 0.76 0.74 0.76 0.87 0.86 0.83 0.78 0.76 0.73 0.68 0.65 0.63 0.64 0.63 0.61 0.60 0.59 0.58 0.55 0.51 0.51 0.51 0.51 0.50 0.50 0.50 0.51 0.52 0.53 0.55 0.55 0.56 0.55 0.55 0.55 0.55 0.54 0.55 0.55 0.55 0.56
0.91 0.90 0.92 0.94 0.95 0.95 0.92 0.90 0.91 0.90 0.88 0.86 0.84 0.83 0.83 0.83 0.80 0.85 0.88 0.89 0.90 0.93 0.97 1.00 1.02 1.01 1.01 1.01 1.02 1.07 1.11 1.09 1.02 0.99 1.02 1.02 0.99 0.98 0.93 0.85 0.78 0.76 0.76 0.73 0.76 0.78 0.71 0.67 0.67 0.73 0.74 0.67 0.73 0.74 0.76 0.73 0.68 0.63 0.61 0.61 0.60 0.58 0.56 0.53 0.51 0.50 0.51 0.54 0.52 0.51 0.51 0.50 0.50 0.51 0.53 0.54 0.53 0.54 0.55 0.54 0.54 0.54 0.53 0.53 0.53 0.51 0.50
0.92 0.92 0.94 0.96 0.97 0.96 0.94 0.93 0.96 0.96 0.94 0.90 0.88 0.87 0.85 0.83 0.83 0.84 0.81 0.79 0.80 0.84 0.91 0.95 0.97 1.01 1.02 1.01 1.00 0.99 1.00 1.02 1.01 1.02 1.03 1.04 0.99 0.91 0.85 0.77 0.73 0.74 0.70 0.70 0.81 0.81 0.74 0.68 0.64 0.65 0.70 0.65 0.64 0.72 0.75 0.71 0.66 0.60 0.59 0.57 0.55 0.54 0.51 0.49 0.49 0.50 0.51 0.52 0.52 0.50 0.49 0.47 0.47 0.48 0.50 0.51 0.52 0.52 0.52 0.52 0.51 0.49 0.49 0.49 0.49 0.49 0.47
0.93 0.97 0.99 1.01 1.01 0.98 0.96 0.97 0.99 0.99 0.97 0.91 0.89 0.89 0.90 0.87 0.84 0.80 0.76 0.77 0.82 0.86 0.86 0.90 0.95 0.95 0.94 0.95 0.97 1.00 1.00 0.99 0.98 0.96 0.96 0.93 0.87 0.80 0.78 0.79 0.73 0.67 0.63 0.69 0.79 0.78 0.76 0.69 0.58 0.57 0.62 0.60 0.64 0.67 0.68 0.67 0.64 0.63 0.62 0.59 0.57 0.53 0.48 0.46 0.47 0.48 0.48 0.49 0.48 0.48 0.48 0.47 0.46 0.46 0.47 0.47 0.47 0.48 0.48 0.47 0.47 0.47 0.47 0.47 0.47 0.47 0.48
0.92 0.93 0.95 0.98 0.96 0.97 0.96 0.96 0.97 0.99 1.02 0.99 0.91 0.88 0.89 0.86 0.81 0.76 0.74 0.77 0.83 0.86 0.86 0.88 0.88 0.90 0.91 0.91 0.91 0.93 0.97 0.98 0.93 0.87 0.82 0.80 0.77 0.71 0.67 0.62 0.67 0.63 0.60 0.67 0.75 0.75 0.69 0.62 0.51 0.47 0.56 0.61 0.65 0.64 0.64 0.63 0.63 0.62 0.60 0.57 0.55 0.52 0.49 0.46 0.45 0.46 0.47 0.49 0.49 0.48 0.47 0.46 0.46 0.46 0.47 0.48 0.48 0.48 0.47 0.47 0.47 0.47 0.48 0.48 0.48 0.47 0.47
0.96 0.97 0.99 0.99 0.99 0.98 0.97 0.96 0.97 1.01 1.03 1.01 0.96 0.92 0.91 0.85 0.81 0.73 0.71 0.73 0.78 0.81 0.82 0.83 0.83 0.82 0.83 0.87 0.88 0.88 0.89 0.89 0.88 0.86 0.82 0.76 0.69 0.65 0.59 0.55 0.66 0.67 0.63 0.63 0.64 0.65 0.61 0.54 0.53 0.54 0.58 0.63 0.63 0.61 0.60 0.60 0.58 0.58 0.58 0.57 0.56 0.55 0.52 0.51 0.51 0.51 0.50 0.48 0.47 0.47 0.47 0.47 0.46 0.47 0.47 0.47 0.48 0.49 0.50 0.50 0.50 0.49 0.49 0.47 0.47 0.47 0.47
0.99 1.00 1.01 1.01 1.01 1.02 1.00 0.99 1.00 1.01 1.03 1.03 1.00 0.96 0.91 0.86 0.79 0.72 0.71 0.73 0.75 0.78 0.78 0.78 0.76 0.75 0.78 0.81 0.84 0.87 0.86 0.85 0.80 0.78 0.74 0.67 0.61 0.60 0.58 0.61 0.69 0.67 0.61 0.59 0.61 0.62 0.55 0.51 0.45 0.49 0.58 0.64 0.64 0.60 0.56 0.55 0.56 0.56 0.55 0.56 0.57 0.57 0.54 0.52 0.51 0.51 0.51 0.50 0.49 0.48 0.49 0.48 0.47 0.47 0.48 0.49 0.49 0.49 0.49 0.49 0.49 0.48 0.48 0.47 0.47 0.46 0.45
0.99 0.96 0.95 0.96 0.98 1.00 1.00 0.99 0.98 0.99 1.02 1.03 1.02 0.99 0.93 0.87 0.82 0.78 0.74 0.73 0.74 0.75 0.75 0.75 0.75 0.74 0.76 0.79 0.82 0.80 0.79 0.78 0.74 0.72 0.70 0.68 0.66 0.64 0.60 0.64 0.71 0.67 0.64 0.61 0.60 0.58 0.56 0.53 0.49 0.48 0.56 0.59 0.58 0.57 0.55 0.55 0.55 0.55 0.55 0.55 0.55 0.55 0.54 0.53 0.52 0.51 0.50 0.49 0.48 0.47 0.48 0.47 0.47 0.46 0.46 0.47 0.47 0.47 0.47 0.46 0.44 0.44 0.44 0.45 0.45 0.45 0.45
0.97 0.95 0.93 0.94 0.97 1.01 1.01 1.00 1.01 1.02 1.01 1.01 1.03 1.02 0.98 0.90 0.84 0.79 0.74 0.73 0.74 0.74 0.71 0.73 0.76 0.75 0.75 0.75 0.75 0.73 0.72 0.68 0.64 0.65 0.62 0.63 0.67 0.71 0.73 0.71 0.68 0.64 0.64 0.61 0.58 0.56 0.56 0.55 0.52 0.51 0.56 0.58 0.57 0.56 0.55 0.56 0.56 0.55 0.55 0.54 0.54 0.54 0.54 0.53 0.53 0.52 0.51 0.50 0.48 0.47 0.47 0.47 0.46 0.45 0.44 0.44 0.44 0.44 0.43 0.43 0.43 0.43 0.44 0.44 0.45 0.45 0.45
0.96 0.94 0.93 0.94 1.00 1.03 1.03 1.01 1.00 0.99 1.01 1.03 1.03 1.02 0.99 0.92 0.87 0.84 0.79 0.76 0.77 0.79 0.81 0.81 0.82 0.84 0.82 0.79 0.75 0.70 0.64 0.60 0.59 0.60 0.54 0.53 0.52 0.55 0.65 0.68 0.61 0.56 0.58 0.57 0.54 0.52 0.51 0.51 0.48 0.49 0.56 0.57 0.56 0.54 0.52 0.51 0.51 0.52 0.52 0.52 0.52 0.51 0.51 0.49 0.48 0.47 0.47 0.47 0.47 0.47 0.46 0.45 0.44 0.43 0.42 0.43 0.43 0.42 0.43 0.43 0.43 0.44 0.44 0.43 0.44 0.44 0.45
0.95 0.95 0.95 0.95 0.98 1.04 1.07 1.08 1.09 1.08 1.05 1.02 1.00 1.02 1.00 0.93 0.88 0.86 0.84 0.83 0.83 0.85 0.87 0.88 0.87 0.86 0.81 0.78 0.74 0.69 0.65 0.64 0.63 0.60 0.54 0.46 0.38 0.44 0.56 0.58 0.54 0.50 0.50 0.52 0.49 0.48 0.48 0.49 0.47 0.47 0.53 0.52 0.52 0.50 0.49 0.48 0.47 0.47 0.47 0.47 0.48 0.48 0.47 0.46 0.45 0.44 0.44 0.44 0.44 0.44 0.44 0.44 0.43 0.42 0.43 0.42 0.42 0.42 0.42 0.44 0.45 0.45 0.45 0.45 0.46 0.48 0.48
0.91 0.93 0.94 0.94 0.97 1.02 1.06 1.09 1.10 1.08 1.04 1.01 0.96 0.96 0.99 0.95 0.90 0.88 0.86 0.86 0.87 0.89 0.90 0.90 0.89 0.87 0.81 0.75 0.66 0.61 0.60 0.61 0.63 0.63 0.56 0.53 0.55 0.58 0.55 0.52 0.49 0.45 0.43 0.42 0.41 0.42 0.44 0.45 0.40 0.44 0.47 0.47 0.47 0.46 0.46 0.46 0.45 0.45 0.45 0.45 0.45 0.44 0.44 0.43 0.43 0.43 0.44 0.44 0.44 0.44 0.44 0.43 0.42 0.42 0.42 0.43 0.43 0.43 0.43 0.43 0.44 0.44 0.46 0.48 0.50 0.51 0.50
0.91 0.92 0.94 0.95 0.95 0.98 1.02 1.05 1.03 1.03 1.02 0.99 0.99 0.99 1.00 0.97 0.93 0.92 0.91 0.89 0.88 0.87 0.88 0.89 0.87 0.82 0.78 0.72 0.67 0.63 0.63 0.61 0.55 0.56 0.62 0.62 0.61 0.59 0.56 0.49 0.45 0.44 0.42 0.43 0.43 0.45 0.45 0.42 0.35 0.41 0.42 0.43 0.43 0.43 0.43 0.43 0.43 0.43 0.43 0.42 0.42 0.41 0.41 0.41 0.41 0.41 0.41 0.41 0.42 0.42 0.42 0.42 0.42 0.42 0.42 0.41 0.42 0.42 0.43 0.43 0.42 0.44 0.47 0.49 0.49 0.50 0.49
0.95 0.95 0.97 0.99 0.98 0.97 0.97 0.99 1.00 1.01 1.02 1.07 1.07 1.05 1.04 0.99 0.95 0.94 0.91 0.89 0.87 0.86 0.85 0.85 0.81 0.78 0.74 0.70 0.68 0.69 0.72 0.72 0.65 0.63 0.68 0.67 0.62 0.55 0.51 0.46 0.44 0.44 0.44 0.42 0.42 0.44 0.44 0.36 0.35 0.40 0.41 0.42 0.41 0.41 0.41 0.41 0.41 0.41 0.41 0.42 0.42 0.42 0.42 0.42 0.43 0.42 0.41 0.41 0.41 0.40 0.40 0.40 0.40 0.40 0.40 0.41 0.42 0.43 0.43 0.43 0.43 0.44 0.45 0.47 0.48 0.48 0.48
1.01 1.02 1.00 0.99 0.98 0.97 0.97 0.98 0.98 1.01 1.08 1.11 1.10 1.09 1.08 1.02 0.93 0.91 0.92 0.90 0.85 0.82 0.82 0.80 0.78 0.76 0.72 0.70 0.70 0.72 0.73 0.72 0.74 0.76 0.75 0.70 0.63 0.57 0.52 0.45 0.41 0.42 0.42 0.39 0.38 0.40 0.41 0.34 0.36 0.38 0.40 0.41 0.41 0.40 0.40 0.41 0.41 0.42 0.42 0.43 0.43 0.43 0.43 0.44 0.44 0.44 0.43 0.41 0.41 0.41 0.40 0.40 0.41 0.41 0.42 0.43 0.43 0.43 0.43 0.43 0.44 0.45 0.45 0.46 0.46 0.47 0.48
1.03 1.01 1.01 1.01 1.01 1.01 1.03 1.04 1.03 1.04 1.11 1.18 1.15 1.11 1.08 1.00 0.94 0.93 0.92 0.88 0.83 0.78 0.76 0.77 0.77 0.75 0.72 0.72 0.73 0.75 0.75 0.75 0.76 0.78 0.75 0.72 0.65 0.57 0.50 0.45 0.42 0.41 0.41 0.39 0.38 0.39 0.37 0.33 0.35 0.38 0.39 0.40 0.40 0.39 0.39 0.40 0.41 0.42 0.43 0.44 0.45 0.45 0.45 0.45 0.45 0.45 0.44 0.43 0.42 0.41 0.43 0.44 0.45 0.44 0.44 0.43 0.43 0.43 0.44 0.44 0.45 0.46 0.46 0.47 0.47 0.47 0.47
1.07 1.07 1.08 1.07 1.05 1.04 1.04 1.06 1.10 1.13 1.12 1.15 1.18 1.12 1.08 1.02 0.96 0.93 0.91 0.88 0.81 0.76 0.75 0.73 0.71 0.74 0.75 0.75 0.75 0.76 0.78 0.77 0.78 0.78 0.76 0.74 0.70 0.62 0.53 0.45 0.41 0.42 0.41 0.39 0.38 0.37 0.34 0.33 0.36 0.38 0.40 0.41 0.42 0.42 0.43 0.43 0.43 0.43 0.44 0.45 0.45 0.46 0.46 0.47 0.47 0.47 0.47 0.46 0.45 0.44 0.44 0.45 0.45 0.44 0.45 0.45 0.45 0.45 0.46 0.46 0.47 0.48 0.48 0.49 0.49 0.49 0.48
Wind_Speed
12 11 11 11 10 10 11 11 10 12 12 11 11 10 9 7 7 10 10 8 9 11 11 12 11 10 10 11 11 10 10 11 11 12 13 12 12 12 13 13 14 16 17 19 22 27 27 26 28 30 29 28 27 27 26 26 25 25 25 25 25 25 25 25 24 24 23 22 22 22 21 21 20 19 19 19 19 18 18 18 17 17 16 16 15 15 14
11 11 11 11 11 11 12 12 11 11 11 12 12 11 10 9 9 9 8 8 10 10 10 10 10 10 11 11 11 10 10 11 11 11 12 11 11 12 12 12 12 13 15 17 19 24 27 26 26 27 29 29 28 28 28 27 26 26 25 25 25 25 25 25 25 25 24 23 23 23 22 22 21 20 20 20 19 19 19 19 18 18 17 17 16 15 15
9 10 9 10 11 10 10 12 11 10 10 12 12 11 10 9 9 8 7 8 10 10 9 9 9 10 11 11 12 12 11 10 10 11 11 11 11 12 11 11 12 13 14 15 17 21 26 27 26 26 27 29 29 29 29 29 28 28 26 25 25 25 25 25 25 25 25 24 23 23 23 23 22 22 21 21 20 19 19 19 18 18 17 17 17 16 16
8 9 8 9 10 9 9 10 9 8 9 10 10 9 9 9 7 6 6 8 10 10 9 9 9 10 12 13 13 13 11 10 10 10 11 12 12 12 11 10 11 12 13 14 16 18 23 26 28 27 27 28 29 30 30 30 30 29 28 27 26 26 26 25 25 25 26 25 24 24 24 23 23 22 22 21 20 20 19 19 18 18 18 18 18 17 17
9 9 8 8 8 8 8 9 8 8 7 7 7 7 7 8 7 6 7 9 9 9 9 10 11 12 13 14 13 13 12 11 10 10 11 12 12 12 12 11 10 11 12 13 15 17 21 25 28 29 29 29 30 30 31 31 31 30 30 29 28 28 27 26 26 26 26 26 26 25 24 24 23 23 23 22 21 21 20 20 19 19 19 19 18 18 18
9 10 9 8 8 8 10 10 9 8 8 6 6 7 8 8 7 7 8 9 9 9 10 11 12 13 12 12 12 12 13 13 11 11 11 12 13 12 12 12 11 11 12 12 13 15 18 22 26 28 29 30 30 31 32 32 32 32 31 30 30 30 28 27 27 26 27 27 26 26 25 24 24 24 23 23 22 22 21 21 21 20 20 20 20 19 19
8 9 7 7 8 10 11 10 9 8 7 5 5 6 8 8 8 7 7 8 8 9 11 12 12 12 11 11 12 12 13 13 12 12 12 13 13 13 13 13 12 11 12 12 13 13 15 19 22 26 29 31 31 32 33 34 34 33 32 31 31 31 30 29 28 27 28 28 27 26 26 26 25 25 24 23 23 22 22 22 22 22 21 21 21 21 21
8 8 6 7 10 11 11 10 9 9 8 6 6 7 8 9 9 8 8 8 9 9 11 11 11 10 11 11 12 13 13 13 13 13 13 14 14 14 14 13 12 12 12 12 13 14 15 16 19 23 27 30 32 32 34 35 35 35 34 33 32 32 31 30 29 28 28 28 28 27 26 26 26 25 25 24 23 23 23 23 22 22 21 21 22 22 22
9 8 8 9 10 10 10 10 10 11 11 10 8 8 9 10 10 8 7 8 9 9 10 10 10 10 11 12 13 14 13 14 14 14 14 14 14 14 14 13 13 12 12 12 13 14 15 17 19 21 25 29 32 33 34 35 35 35 35 34 33 33 32 31 30 29 28 28 28 27 26 26 26 25 25 25 23 23 23 23 23 22 21 21 22 22 22
10 8 8 8 8 9 10 11 11 10 9 9 8 8 9 10 10 8 7 8 9 9 9 9 10 10 11 13 13 14 14 14 15 15 15 14 14 14 14 14 13 12 12 12 13 15 16 17 19 22 24 27 31 33 34 34 34 35 35 35 34 34 33 32 31 30 28 28 27 27 26 26 26 26 26 26 25 23 22 22 21 21 21 21 22 22 22
10 9 8 8 8 10 11 10 9 8 7 8 7 7 10 11 10 9 8 8 9 9 9 9 9 9 11 12 13 14 14 14 14 15 15 15 14 14 14 14 13 12 12 13 13 15 16 18 20 22 25 28 30 33 34 34 35 35 35 35 35 34 33 32 31 30 29 28 28 27 27 26 26 26 27 27 26 24 23 21 20 19 20 21 22 23 23
11 10 9 10 10 10 10 10 10 10 9 8 7 9 11 11 9 9 9 9 10 10 9 9 9 9 11 12 12 12 13 13 13 14 14 14 14 14 13 13 13 13 13 13 13 14 16 18 19 22 25 29 30 31 32 34 35 34 34 33 33 33 32 31 30 30 29 29 29 28 27 26 26 25 25 25 25 23 23 22 21 21 21 21 21 22 24
11 10 10 10 10 10 11 11 11 10 10 9 9 11 11 10 9 10 9 9 9 9 9 9 9 10 11 11 10 10 11 12 12 12 13 14 13 12 12 12 12 12 12 12 12 13 14 15 16 18 21 27 30 29 29 32 33 33 33 33 32 31 29 29 29 29 29 29 29 28 28 27 26 25 24 24 23 22 22 22 22 21 21 21 20 20 22
12 11 11 10 11 11 11 12 11 9 9 10 11 11 10 9 10 10 9 9 9 9 9 10 10 10 10 9 9 9 9 11 12 12 12 12 12 12 12 11 11 11 11 10 11 11 11 11 11 10 9 16 23 24 24 27 30 31 31 31 30 30 28 27 27 28 28 28 28 27 27 26 24 23 23 22 21 21 21 21 20 19 18 18 17 16 15
13 12 11 10 11 12 12 11 11 10 10 12 12 11 9 10 10 11 10 10 9 9 10 10 10 10 9 8 8 8 8 10 11 12 12 12 12 12 11 11 10 10 9 9 8 8 8 7 6 5 6 9 13 17 17 19 22 24 25 26 27 27 27 26 26 26 27 27 26 26 25 24 23 22 21 21 20 19 19 18 18 17 16 16 16 16 15
14 14 14 13 13 13 11 10 11 11 11 11 11 10 10 10 10 10 10 10 10 10 10 10 10 9 8 8 8 7 7 8 10 11 12 11 11 12 11 10 10 9 9 8 7 6 5 5 4 7 8 7 8 10 12 15 17 18 20 21 22 23 24 24 24 24 24 25 25 24 23 22 21 20 19 19 18 18 18 17 15 15 15 15 15 15 15
15 15 16 15 14 13 11 10 10 10 10 10 10 10 10 10 10 10 10 10 10 10 10 10 10 9 9 8 8 7 7 8 9 10 11 11 12 12 12 11 11 10 9 8 6 5 4 3 3 6 8 9 9 10 12 14 15 15 17 18 18 19 20 21 22 22 22 22 22 21 21 20 20 18 18 17 16 16 16 15 14 13 13 13 13 12 12
15 15 15 15 13 12 11 10 10 10 10 10 9 9 10 11 11 11 11 11 11 11 11 10 10 10 9 8 7 7 7 7 7 9 10 11 11 12 12 11 11 10 9 8 6 5 3 2 2 3 4 6 7 10 12 14 14 14 15 14 14 15 16 17 18 19 20 20 19 19 19 18 18 17 16 16 15 15 14 14 13 12 11 10 9 9 8
15 14 14 14 12 11 10 9 10 10 9 10 10 9 10 11 11 11 11 11 11 11 11 11 10 10 9 8 7 7 7 6 7 8 9 10 11 11 12 12 11 10 9 8 6 5 4 3 2 2 3 4 6 8 10 11 12 13 12 11 11 13 14 15 15 16 17 17 18 18 17 17 17 16 16 15 14 14 13 12 12 11 10 10 9 8 7
13 13 13 11 9 10 10 10 10 10 10 10 10 10 10 11 11 11 11 11 11 11 11 11 10 10 9 9 8 7 7 7 7 8 8 10 11 11 12 11 10 9 8 7 6 5 5 4 4 3 4 5 6 8 10 10 11 11 11 11 12 14 14 15 15 15 15 16 17 17 16 15 15 15 14 13 13 12 12 11 11 11 11 10 10 9 8
12 13 12 10 8 10 11 10 11 11 11 11 11 10 10 10 10 11 11 11 11 11 11 11 10 10 9 9 9 8 7 7 7 8 8 9 10 11 11 10 9 9 8 7 5 5 6 6 5 5 5 7 8 9 10 10 10 10 11 11 13 14 15 15 15 15 15 15 15 15 15 15 14 13 12 12 12 11 11 10 10 11 11 10 10 9 9
13 14 14 13 11 12 12 12 11 11 11 10 10 10 11 11 10 10 10 10 10 10 11 11 10 10 10 10 9 8 8 8 8 8 8 9 10 11 11 10 10 9 8 7 6 7 7 7 6 7 7 8 9 10 10 10 11 12 12 12 13 14 14 14 14 14 15 15 15 14 14 14 13 12 11 10 10 9 9 9 8 9 9 8 8 8 8
14 15 16 14 12 12 13 12 11 10 10 10 10 11 11 10 11 10 10 10 10 11 11 11 11 11 10 10 9 9 9 8 8 8 9 9 10 10 10 10 10 9 9 8 7 8 9 8 7 8 9 9 10 11 11 11 11 12 13 14 14 14 14 14 14 14 14 14 14 13 13 12 12 11 10 9 8 7 7 7 7 7 7 6 6 6 7
13 14 15 14 13 12 13 12 11 11 11 11 11 11 11 11 11 11 11 12 11 11 11 11 11 11 10 10 10 10 9 9 9 9 9 10 10 10 10 10 10 9 10 9 8 9 10 9 8 9 10 10 11 11 11 10 11 12 13 14 15 15 14 14 14 14 13 13 13 12 12 12 12 11 11 10 9 7 7 6 6 6 6 6 6 6 6
14 14 14 14 13 13 12 12 12 12 12 12 12 12 12 12 11 11 12 12 12 12 11 11 11 11 10 10 10 10 10 10 10 10 9 9 10 11 11 11 10 10 10 10 10 10 11 11 10 11 11 11 11 11 11 11 11 12 12 12 13 13 13 13 13 14 13 13 13 12 12 12 11 11 11 10 9 9 8 7 7 6 6 6 6 6 6
15 14 13 12 12 13 12 12 12 12 12 12 12 12 12 12 11 11 12 12 12 12 12 11 11 11 11 11 11 11 10 10 10 10 10 10 10 10 10 11 11 11 11 11 11 11 11 11 12 12 12 12 12 12 13 13 12 12 12 11 11 11 12 12 12 12 12 12 11 11 10 10 10 9 9 9 9 9 8 8 7 7 6 6 5 5 5
18 17 15 13 12 13 14 13 13 13 13 12 12 12 12 11 10 10 11 11 11 10 10 11 11 11 11 11 11 11 11 11 11 10 10 10 10 10 10 11 12 12 12 11 11 11 12 12 12 12 12 12 13 13 14 13 12 12 11 10 10 10 11 11 10 10 10 9 9 9 8 8 8 8 8 8 7 7 7 7 7 6 6 5 5 5 5
19 19 17 16 16 16 15 14 13 13 12 12 12 12 11 10 10 10 10 10 10 9 10 10 10 10 11 11 11 11 11 11 11 11 11 10 10 11 11 11 11 11 12 12 12 12 13 13 13 13 13 13 14 14 14 13 12 11 11 10 10 10 9 9 8 8 8 8 8 8 8 8 8 8 8 8 7 7 7 7 6 6 6 6 6 6 6
19 18 18 17 17 16 15 14 13 13 12 11 11 10 10 9 9 9 9 9 9 10 10 10 10 11 11 11 11 11 11 11 11 11 11 11 11 11 12 12 11 11 12 12 13 14 13 13 14 13 13 14 14 14 13 13 12 11 11 11 10 9 9 8 8 8 8 8 8 7 7 7 7 7 8 8 8 8 7 7 7 6 6 6 6 7 7
19 18 17 16 16 16 15 14 13 12 12 11 10 10 9 9 9 9 8 8 9 9 9 9 10 10 11 11 12 11 11 11 11 10 11 11 11 12 12 12 12 12 12 13 14 14 14 14 14 14 14 14 15 14 13 13 12 11 11 10 10 9 9 8 9 9 8 8 8 8 8 7 7 7 7 7 7 7 7 7 7 6 6 6 6 7 7
19 18 17 17 16 16 15 13 12 11 11 11 10 10 9 9 9 9 8 8 8 9 9 9 9 10 11 11 11 11 11 11 11 10 10 11 11 12 13 14 14 13 13 14 14 15 15 15 15 14 15 15 15 14 13 12 11 10 10 10 10 9 9 9 9 9 9 9 8 8 8 8 7 7 7 7 7 7 7 6 6 6 5 6 6 7 7
18 17 17 17 17 16 15 13 12 11 11 11 11 10 10 10 10 9 8 8 8 8 9 9 10 11 11 11 11 11 11 11 11 11 10 11 11 12 13 14 15 15 14 14 15 16 16 15 14 15 15 16 15 14 14 13 11 11 10 10 10 9 9 9 9 8 8 8 8 8 8 8 7 7 7 7 7 6 6 5 5 5 5 6 6 7 8
17 17 17 17 16 16 15 14 13 12 11 11 11 11 11 10 10 9 8 7 7 8 8 9 9 10 11 11 11 11 11 11 11 11 11 11 12 12 13 14 15 15 15 15 15 16 16 16 16 15 16 16 15 14 14 13 12 11 11 11 10 10 9 8 8 8 8 8 7 7 7 7 7 7 6 6 6 6 6 6 5 5 6 6 7 7 8
18 18 18 18 18 17 16 15 13 12 11 11 11 11 11 11 10 9 8 7 7 7 8 9 9 10 10 10 11 11 11 12 11 11 11 12 13 13 14 14 14 14 14 15 15 16 17 17 17 16 16 15 15 14 13 13 13 12 12 12 11 10 9 9 8 8 8 8 7 7 7 7 7 7 7 7 7 6 6 6 6 6 6 7 7 8 9
18 18 18 18 18 17 16 15 14 13 12 12 12 11 11 11 10 9 8 7 7 7 8 8 9 9 10 11 12 12 12 12 12 11 12 13 14 14 15 15 14 14 14 14 16 17 18 18 18 17 16 15 15 14 13 13 13 13 12 11 11 10 10 9 9 8 8 8 7 7 7 7 7 7 7 7 7 7 7 7 7 7 7 8 8 9 10
17 17 18 18 18 17 16 15 14 14 13 12 12 11 11 11 10 9 8 8 7 7 7 8 8 9 10 12 12 13 12 12 12 12 12 13 14 14 15 14 15 15 14 15 16 17 18 18 18 18 17 16 15 14 13 13 13 13 12 11 10 10 10 9 9 9 9 8 8 8 8 7 7 7 7 8 8 8 8 8 8 8 8 9 10 10 11
18 18 18 18 18 17 16 15 15 14 13 12 12 12 11 11 10 8 7 6 6 7 8 8 8 9 10 12 13 13 13 12 12 12 13 13 13 13 13 13 13 13 14 15 15 16 17 18 18 18 17 16 15 14 14 14 14 13 12 12 11 11 10 9 9 9 9 9 9 9 9 8 8 8 8 8 8 8 8 8 9 9 10 10 11 12 13
18 18 19 19 18 18 17 16 15 14 13 12 12 12 12 11 10 9 7 6 5 6 7 8 9 10 10 11 12 13 13 13 12 12 13 13 13 12 12 12 12 12 13 14 14 15 16 17 17 17 16 15 15 14 14 14 14 14 12 11 11 10 10 9 9 9 9 9 9 9 9 9 9 9 9 9 9 9 9 9 9 10 11 11 12 13 14
18 19 19 19 19 18 17 16 16 15 14 13 12 12 12 12 11 10 9 7 6 5 6 8 9 10 11 12 13 13 13 13 12 12 13 14 13 13 12 12 12 11 11 12 13 14 15 16 17 17 16 15 14 14 14 14 14 13 11 10 10 9 9 10 10 10 9 9 9 9 9 9 10 9 9 9 9 9 9 10 10 11 12 13 14 15 16
18 19 19 19 19 19 18 17 17 16 16 15 14 13 13 13 13 12 11 9 8 7 7 8 9 10 11 12 13 13 13 13 13 13 13 13 13 12 13 13 12 11 11 11 12 13 14 15 16 17 17 16 15 14 14 13 12 12 11 10 9 9 9 9 10 10 10 10 10 10 9 9 10 9 9 9 10 10 10 11 11 12 13 14 15 16 16
17 18 19 20 20 20 19 18 18 17 16 16 15 14 14 14 14 13 12 11 10 9 9 9 9 9 10 11 12 13 13 13 13 12 12 12 12 12 12 13 12 11 11 11 11 12 13 14 15 16 16 16 16 15 13 12 12 11 11 10 10 10 10 10 10 10 10 10 10 10 10 10 10 10 10 10 10 11 12 12 13 13 14 15 16 16 17
16 17 18 19 20 20 20 19 19 18 17 17 16 16 16 16 15 15 14 13 12 11 10 10 10 10 10 10 11 11 12 13 13 12 12 12 12 12 12 13 12 11 11 11 11 11 12 13 14 15 15 15 14 13 13 12 12 11 11 11 11 11 10 10 9 10 10 10 10 10 11 11 11 11 11 11 12 12 13 13 14 15 16 17 17 18 19
15 16 17 18 19 20 20 20 20 19 19 18 18 17 17 17 16 15 14 14 13 13 12 11 10 10 10 10 10 10 11 12 12 12 11 11 11 11 12 12 13 13 13 13 12 12 12 13 13 14 14 14 13 13 12 12 12 12 12 12 12 12 11 10 10 10 11 11 11 11 11 12 12 13 13 13 14 14 15 15 16 16 17 18 18 19 19
15 16 17 18 19 19 20 20 20 20 20 20 19 19 18 18 17 17 16 15 15 14 13 12 12 11 11 10 10 10 10 11 12 11 10 10 10 10 10 11 12 12 13 12 12 12 12 12 12 13 13 12 12 12 13 12 12 13 13 13 12 11 11 11 11 11 11 11 12 12 12 13 13 14 14 15 15 16 16 16 17 17 18 18 18 19 19
15 16 17 18 19 19 19 20 21 22 21 21 20 20 20 19 19 18 18 17 16 15 15 14 13 13 12 12 12 11 11 11 11 11 11 10 10 10 10 10 10 11 12 12 12 12 11 11 12 13 13 12 12 13 13 13 13 13 12 12 11 11 11 11 11 11 12 12 13 13 13 14 14 15 15 15 16 16 17 17 17 18 18 19 19 19 19
16 16 17 18 19 19 19 20 21 22 22 22 21 21 21 20 19 19 19 18 17 16 15 15 14 14 14 14 13 12 11 11 11 11 11 10 9 10 11 11 10 11 11 11 11 11 11 11 12 12 12 12 12 12 12 12 12 12 12 12 12 12 12 12 12 12 13 13 13 14 14 14 15 15 16 16 17 17 18 18 18 19 19 19 19 18 19
16 16 17 18 18 19 20 20 21 22 23 23 22 21 21 21 20 20 20 19 18 16 15 15 15 15 15 14 14 13 12 11 11 10 10 10 9 9 10 11 11 11 11 11 11 11 11 11 12 12 12 12 12 12 12 12 12 12 12 13 13 13 13 13 14 14 14 14 14 14 15 15 16 16 16 17 17 18 18 18 19 19 19 19 19 19 19
16 17 17 18 19 20 20 21 22 23 24 24 23 22 22 21 21 20 20 19 18 17 16 16 16 15 15 15 15 14 13 12 10 10 10 10 9 10 10 11 11 11 11 11 11 12 12 12 12 12 12 12 12 12 13 13 13 13 13 13 14 14 14 14 15 15 15 15 15 16 16 16 17 17 17 17 18 18 18 18 19 19 19 19 19 19 20
17 17 18 18 19 20 21 22 23 24 26 26 24 23 22 21 21 20 20 19 18 17 17 17 17 16 16 15 15 14 13 12 10 9 9 10 10 10 10 11 11 11 11 11 11 12 12 12 12 12 12 12 13 13 13 13 13 13 14 14 14 14 15 15 15 16 16 16 17 17 17 17 17 18 18 18 18 18 18 19 19 19 19 20 20 20 21
17 17 18 19 20 21 22 22 23 25 27 27 25 24 23 22 21 20 20 19 18 18 18 18 17 17 16 16 15 14 14 12 10 9 9 9 9 10 10 11 11 11 12 12 12 12 12 13 13 13 13 13 14 14 14 14 14 14 15 15 15 15 15 16 16 16 16 17 17 18 18 17 18 18 18 18 18 18 19 19 19 20 20 20 20 21 21
17 17 18 19 19 20 21 22 23 25 26 26 25 24 23 22 21 21 20 20 19 18 18 18 17 17 17 16 15 15 14 13 11 10 9 9 9 9 10 11 12 12 12 12 12 12 13 13 14 14 14 14 14 15 15 15 15 15 15 16 16 16 16 16 17 17 17 17 18 18 18 17 18 18 18 18 19 19 19 19 20 20 21 21 21 21 22
16 17 17 18 18 20 21 22 23 25 26 27 26 24 23 22 22 21 21 20 20 19 19 18 18 17 17 17 16 15 14 13 12 11 10 10 10 10 10 11 12 12 12 12 13 13 13 14 14 14 14 14 14 15 15 15 15 15 16 16 16 17 17 17 17 17 17 17 17 17 17 18 18 18 18 18 19 19 19 20 20 21 21 21 21 22 22
Wind_Direction
241 242 247 254 261 266 276 283 265 241 235 233 235 252 261 247 246 261 259 244 244 253 253 250 248 245 245 246 244 244 249 248 243 240 242 247 249 248 246 242 240 237 235 234 228 222 222 223 220 216 215 215 215 214 214 214 214 214 215 216 217 217 216 216 217 218 218 219 219 220 222 224 226 226 226 228 230 233 234 234 235 237 240 242 243 243 245
249 255 257 262 268 272 280 286 271 246 235 234 240 254 255 247 257 264 255 246 251 259 257 249 245 244 246 249 249 248 250 252 247 239 239 243 245 246 247 244 241 237 234 234 229 221 217 220 223 220 217 216 215 214 215 216 216 215 215 217 218 218 217 217 218 219 220 220 221 221 223 225 227 228 229 230 232 233 233 233 235 238 241 243 243 244 245
259 265 267 268 269 269 280 288 276 249 240 246 252 255 250 252 265 266 254 252 261 265 259 250 246 249 252 254 252 250 250 253 251 241 236 238 241 245 248 246 241 238 233 231 231 224 218 219 222 223 221 218 217 216 217 217 218 217 217 217 218 218 218 218 219 220 221 221 221 222 223 225 227 228 230 231 233 233 233 234 237 240 241 241 243 244 245
262 267 271 272 273 274 278 285 280 258 244 246 252 255 250 247 250 251 247 252 257 258 255 254 253 252 252 253 252 251 251 255 255 244 236 238 241 244 250 252 247 242 237 234 232 227 221 221 223 224 224 222 219 218 217 217 218 219 218 218 218 218 218 218 219 220 220 220 220 222 223 224 227 229 230 231 233 234 234 235 237 239 240 241 243 245 245
261 264 266 270 281 283 269 266 270 260 245 239 246 258 263 258 247 241 248 254 256 255 254 258 260 256 254 254 253 252 252 255 257 248 238 239 241 243 250 255 252 247 242 239 236 231 226 225 226 225 225 224 222 220 219 218 219 219 219 219 219 219 219 219 219 220 220 220 221 223 225 226 228 229 230 231 232 234 235 237 238 240 241 242 244 245 246
261 265 269 275 279 268 255 258 263 253 239 232 241 254 267 273 267 257 258 261 259 256 255 256 256 257 258 257 255 252 248 250 255 252 242 240 242 244 249 253 253 251 247 243 240 237 233 231 230 228 226 226 224 223 221 219 220 220 221 220 219 219 220 220 220 220 221 221 223 225 228 229 229 230 231 231 232 234 236 238 239 241 242 244 245 246 248
256 267 277 278 265 252 252 262 262 248 234 227 243 263 271 274 269 262 264 264 257 254 256 258 259 260 264 263 259 254 248 246 251 253 248 244 244 246 248 251 253 253 252 249 246 243 240 237 235 231 229 228 226 224 222 221 220 220 220 219 219 219 220 221 221 222 223 224 225 227 229 229 230 231 232 233 234 236 238 240 242 243 245 246 247 249 251
256 267 266 258 256 258 266 269 250 235 237 242 252 268 274 273 268 263 266 268 267 266 265 267 267 264 263 264 260 256 251 246 246 251 249 245 245 246 248 251 253 253 254 252 249 249 247 243 239 235 232 230 228 226 224 223 221 220 219 219 219 219 220 221 222 223 224 225 226 227 229 230 231 232 234 236 237 239 240 241 243 245 247 248 249 250 252
253 255 252 259 269 272 274 268 248 240 244 245 243 251 264 273 272 267 268 269 270 270 269 270 271 268 267 268 263 258 254 247 244 247 247 244 243 246 249 252 253 255 256 255 253 254 253 249 244 240 235 232 229 228 226 224 222 219 219 220 220 220 221 221 221 223 224 224 225 227 229 231 233 234 235 237 239 242 243 243 243 245 247 249 250 252 253
247 245 254 267 274 267 260 256 255 252 241 230 232 247 263 271 269 261 262 267 266 267 268 269 272 276 276 271 263 257 254 249 245 245 245 244 244 247 252 253 253 256 259 260 260 259 259 256 250 244 240 235 230 227 226 224 223 221 220 220 220 220 220 220 220 222 223 224 225 228 231 234 236 237 238 239 241 244 244 242 242 244 247 250 252 254 254
241 241 250 256 257 256 253 253 260 260 237 225 241 263 268 268 262 254 257 264 264 264 266 267 272 279 277 271 265 258 252 249 247 245 244 244 246 251 252 252 253 258 262 265 266 264 264 262 256 250 245 238 230 227 225 224 223 223 221 220 220 220 219 219 221 223 224 225 227 230 233 236 238 239 240 240 240 242 243 244 245 247 249 251 253 254 254
238 243 250 254 255 254 251 252 259 258 245 244 259 267 266 264 258 254 259 264 264 265 268 270 274 275 273 272 270 261 252 249 248 244 242 243 248 252 252 252 256 260 264 268 270 270 270 269 265 259 249 236 227 224 224 223 222 223 222 221 220 218 218 219 222 224 226 226 228 231 234 237 240 240 240 238 237 239 242 245 248 250 252 254 256 256 254
239 246 250 254 255 251 248 252 259 259 254 256 257 255 258 258 252 255 263 266 267 269 268 269 274 275 273 274 273 265 256 251 246 242 242 244 246 248 250 253 258 262 265 267 270 275 277 276 275 268 251 232 222 220 223 223 222 221 220 218 218 217 217 219 222 224 226 227 229 232 235 238 240 240 240 239 238 240 242 245 248 249 252 255 258 261 259
241 245 247 253 256 253 247 250 259 261 255 253 253 252 256 255 250 255 264 266 267 270 270 270 275 278 280 281 277 272 264 254 245 242 243 244 245 246 247 252 256 260 263 265 270 276 281 284 283 271 236 211 207 211 217 219 219 218 217 216 216 216 217 219 221 222 224 226 229 232 235 236 237 238 239 238 238 239 241 242 243 244 247 250 252 258 260
242 244 245 251 255 253 248 250 260 261 251 248 250 253 258 259 256 258 264 265 265 267 271 273 276 278 281 283 280 275 268 256 247 244 242 242 243 245 246 248 251 254 257 260 268 277 282 288 279 234 179 166 181 195 204 209 210 212 211 211 213 214 216 219 220 221 224 226 229 231 232 232 233 233 234 234 234 236 237 237 237 239 242 245 246 250 256
242 243 247 249 250 251 250 250 253 253 248 246 247 249 256 261 259 259 262 263 263 264 268 274 276 276 277 278 278 275 269 260 251 244 240 237 239 241 243 243 244 248 251 251 261 277 285 287 263 222 207 197 190 192 196 198 199 202 204 205 209 213 216 217 218 219 222 224 226 227 226 226 226 227 228 229 230 231 231 232 235 237 239 243 245 248 253
243 244 247 248 247 250 252 249 244 243 246 249 247 248 253 257 258 259 260 261 263 265 268 271 273 273 273 274 275 274 270 264 254 244 236 232 233 236 239 239 239 242 244 244 251 272 289 286 255 232 229 228 221 212 207 203 202 204 205 205 209 211 213 214 215 216 216 217 218 219 219 219 220 220 219 218 218 221 223 225 227 230 234 240 244 246 249
248 249 249 246 244 246 248 248 245 243 247 252 254 255 257 257 259 260 261 262 264 265 265 267 269 269 269 270 272 272 269 263 254 244 235 229 228 231 234 234 234 236 237 240 247 259 273 268 237 219 216 215 212 210 209 208 208 207 205 205 207 208 207 207 208 208 208 209 211 211 211 211 211 210 207 206 207 211 215 217 220 222 226 231 236 239 243
245 249 251 246 240 239 241 244 246 246 249 255 259 260 260 259 258 260 262 263 263 263 264 265 266 267 265 263 264 266 266 262 254 246 237 229 225 226 228 229 230 230 232 236 242 245 241 227 194 170 167 171 176 182 187 190 192 192 190 189 190 191 192 194 196 196 196 197 197 197 197 199 201 203 204 204 206 209 212 214 217 219 221 223 227 232 239
241 244 247 244 238 241 242 240 241 245 251 259 264 263 263 263 262 262 262 260 259 261 263 263 263 264 262 258 256 256 259 259 253 245 238 229 223 221 222 223 223 222 223 226 227 224 216 202 184 169 157 151 155 160 164 168 172 175 175 169 164 164 168 171 175 179 180 180 181 184 187 190 194 199 202 205 208 211 215 218 221 222 223 225 228 232 237
241 242 242 238 239 248 250 246 246 251 254 259 262 261 262 263 263 262 262 261 260 261 261 260 260 260 257 254 251 249 250 251 248 242 236 228 220 215 214 215 215 211 208 207 203 196 192 185 178 172 159 147 145 146 150 155 157 158 162 164 162 161 161 161 163 168 171 172 175 179 184 187 191 195 199 204 208 212 217 222 225 226 228 230 233 236 238
240 241 239 236 238 245 247 246 248 252 253 255 259 262 263 262 260 259 260 261 262 260 259 259 259 258 255 250 246 245 244 242 241 238 230 220 213 211 211 210 208 201 197 194 188 184 185 181 174 169 162 155 151 145 140 140 139 137 141 149 156 161 163 164 166 169 169 171 174 178 181 185 188 193 198 203 207 209 214 219 221 222 223 226 231 236 237
238 240 238 235 235 239 241 242 246 251 252 254 259 262 264 262 259 258 258 260 260 259 258 258 258 258 253 244 240 240 239 236 234 230 221 215 212 211 211 208 204 201 199 196 191 188 188 183 174 170 166 161 157 150 140 136 137 135 134 137 142 148 153 156 159 162 164 167 170 173 175 178 180 183 186 190 193 198 202 206 207 209 212 217 226 234 238
238 239 234 231 231 233 236 241 247 253 256 258 260 261 263 263 263 261 260 260 259 257 257 259 258 255 248 240 236 235 233 231 228 222 219 217 213 209 208 206 204 204 203 199 193 190 187 182 175 173 170 165 161 156 147 142 143 141 139 139 139 141 144 146 148 151 154 158 162 164 168 171 174 176 177 180 184 190 196 199 202 206 213 221 230 239 245
234 232 230 230 229 229 234 242 250 256 260 261 262 263 264 264 265 264 263 262 259 255 256 256 253 248 243 238 234 230 228 227 225 221 219 217 211 208 208 208 206 204 202 201 200 197 193 190 186 181 176 171 169 166 162 158 154 150 148 147 146 146 147 147 147 149 152 154 156 159 162 166 170 174 178 182 186 191 197 204 208 211 217 225 232 237 242
229 226 228 232 231 230 236 246 252 257 260 261 262 265 265 264 265 265 265 264 261 256 252 250 246 243 240 236 231 228 225 224 223 221 219 216 213 212 211 207 203 201 201 203 203 200 196 193 191 189 185 181 179 175 171 168 164 159 157 155 153 154 155 155 156 156 157 158 160 161 162 166 171 176 181 186 190 194 199 206 210 214 219 226 231 236 242
226 223 225 231 234 237 244 250 253 255 259 261 261 262 263 263 264 266 267 266 261 254 247 243 240 240 238 233 227 225 223 221 221 222 221 218 217 214 208 202 200 200 199 200 201 199 197 193 191 190 190 188 184 180 176 172 169 165 164 163 161 159 159 160 163 166 169 173 176 178 181 184 188 192 194 195 198 202 207 212 215 219 226 235 244 251 258
228 228 232 236 237 238 244 249 252 256 259 260 258 258 258 261 265 269 270 266 259 250 244 240 236 234 234 230 226 224 224 222 220 221 221 218 214 209 203 200 199 198 198 198 197 195 193 191 189 189 189 187 183 179 176 173 170 168 168 168 169 169 168 169 173 176 181 186 189 193 197 202 205 208 209 211 214 217 220 223 226 230 237 248 259 266 272
230 233 238 240 236 235 240 247 251 254 256 255 254 254 255 257 262 267 270 265 257 250 246 240 234 232 230 226 223 223 224 222 220 218 216 213 208 204 201 199 197 196 196 197 197 194 191 189 188 187 185 182 177 174 175 175 175 176 177 178 179 181 182 184 185 185 186 189 191 194 198 202 206 209 212 216 220 224 225 228 233 238 246 257 266 273 278
232 234 236 235 231 231 235 239 243 247 249 249 250 252 252 252 255 259 264 265 259 252 245 237 232 232 228 223 221 221 220 219 217 214 211 209 206 204 202 200 198 198 200 200 199 195 190 187 186 185 184 181 178 177 179 181 181 182 184 187 189 190 190 193 194 194 194 196 197 199 203 206 208 210 213 216 221 226 229 232 237 243 251 262 270 276 280
232 233 231 230 230 230 231 233 238 243 245 245 246 246 245 246 248 251 257 264 262 253 244 236 231 228 223 219 218 218 217 215 212 210 209 207 206 206 205 202 200 201 202 199 195 190 187 185 186 188 188 186 185 186 187 187 188 191 193 194 194 193 191 191 194 196 200 203 205 209 214 217 220 221 222 224 228 231 232 234 239 245 254 263 271 275 277
228 229 229 229 230 228 227 230 235 239 240 241 240 239 240 243 245 247 254 262 262 252 242 234 227 221 216 213 213 214 213 210 207 205 205 203 202 203 203 201 199 198 197 195 192 190 191 193 194 194 191 189 189 191 193 194 196 198 198 197 196 193 192 192 193 197 202 206 210 215 219 222 226 230 230 230 230 229 229 232 238 246 256 265 273 277 278
220 222 224 225 224 222 223 227 233 235 237 239 241 241 242 244 245 247 253 259 257 249 239 229 220 215 211 210 209 208 206 204 203 200 197 196 198 198 197 197 197 196 196 196 197 196 197 198 197 194 191 190 192 194 196 199 202 202 200 198 197 196 197 198 199 203 206 208 212 218 221 225 230 231 229 227 226 225 228 233 240 249 260 269 275 279 281
220 222 222 221 220 220 221 225 229 232 235 239 241 241 241 241 242 245 250 254 251 243 233 223 215 212 210 208 205 202 201 201 200 199 197 198 199 199 197 197 199 199 199 201 201 200 200 200 197 194 193 194 196 198 200 202 203 202 199 197 197 198 201 205 208 211 213 215 219 223 225 227 229 228 226 226 227 229 234 240 246 254 264 271 276 280 284
225 225 223 221 221 221 222 224 226 228 230 234 236 238 239 239 239 241 245 247 242 234 226 218 212 210 209 207 203 200 198 197 197 199 200 200 199 198 199 201 202 201 202 205 206 204 203 202 201 200 199 198 198 200 201 201 201 199 196 197 199 202 206 211 214 217 218 221 223 225 223 222 223 225 227 229 232 236 242 248 255 262 268 273 277 282 286
224 223 222 221 220 220 222 225 225 226 228 231 233 234 234 233 231 233 237 238 232 224 218 212 207 204 205 204 202 199 197 197 197 198 200 200 198 198 200 202 202 202 203 206 207 205 203 202 203 205 205 202 201 200 200 200 201 200 199 200 203 205 209 214 217 219 220 221 221 222 223 224 227 231 233 235 238 244 250 255 262 267 271 276 280 284 288
224 223 222 222 219 219 221 223 223 223 225 229 229 227 225 224 224 224 226 226 222 216 211 205 200 199 199 198 194 190 190 193 195 196 197 198 197 197 198 199 200 201 203 204 204 204 203 201 202 205 207 206 204 202 199 200 203 205 205 206 207 210 214 218 221 221 222 222 223 225 228 231 235 239 242 245 247 250 255 260 266 271 276 280 283 286 290
225 224 223 221 219 220 221 221 219 219 222 224 224 223 220 218 216 214 210 204 200 202 201 198 195 194 192 189 185 181 181 183 187 191 192 191 189 188 188 190 192 195 199 201 202 203 202 201 201 204 205 204 203 204 204 203 204 205 207 208 211 214 218 220 221 221 222 225 227 231 235 238 241 244 247 250 252 256 261 266 271 276 279 283 286 289 292
225 225 224 222 221 220 219 218 217 218 219 219 220 220 217 213 208 204 200 194 184 177 178 181 183 183 182 181 180 179 177 178 183 186 185 183 183 186 190 193 195 196 196 197 199 201 201 201 202 202 201 200 202 206 206 203 201 203 206 209 215 220 224 224 224 224 226 229 232 235 238 240 243 245 248 251 256 262 267 271 275 279 282 286 289 291 293
225 225 224 223 220 218 217 216 217 218 217 216 215 213 211 207 203 198 196 192 181 168 161 160 166 173 178 181 183 182 179 177 179 181 180 181 185 191 195 199 202 202 199 197 199 200 201 202 202 203 203 203 203 204 203 201 200 204 209 214 219 223 225 224 224 226 229 232 234 235 238 241 244 247 251 255 260 265 268 272 276 279 282 286 288 291 293
225 225 223 221 218 216 215 215 215 215 215 214 211 206 204 202 199 196 194 191 183 174 165 157 154 158 166 174 180 182 181 178 179 181 183 185 191 196 197 198 200 202 201 202 204 204 201 201 202 203 204 204 204 205 206 208 209 211 214 219 223 224 223 223 225 228 231 234 236 238 240 243 246 250 254 258 262 265 269 272 276 279 283 286 289 292 295
223 222 220 219 217 215 213 213 212 211 211 210 206 202 200 198 196 195 194 191 186 181 176 169 162 159 160 162 168 174 179 180 182 186 190 194 197 200 202 202 202 203 204 207 210 208 204 202 203 205 205 207 209 211 214 215 216 217 221 224 225 224 223 225 229 232 234 236 239 242 245 248 250 254 257 260 263 267 271 275 279 282 285 288 291 294 296
221 220 219 218 216 213 212 211 209 208 207 205 203 201 199 197 195 194 193 191 189 186 183 180 176 172 170 167 166 170 176 180 182 186 192 197 200 203 204 203 204 204 205 208 211 211 208 205 206 207 208 210 213 214 214 216 219 222 224 224 224 223 225 229 235 238 240 242 244 247 250 252 254 256 259 263 267 271 274 278 282 285 287 290 292 294 295
220 219 219 217 214 212 211 209 207 205 204 204 203 201 199 197 195 194 192 191 190 189 188 188 186 184 182 180 177 177 179 181 182 185 187 190 194 197 198 198 200 201 202 204 208 209 208 207 206 206 207 210 212 214 218 221 223 224 224 224 225 228 233 238 242 245 246 248 250 252 253 255 257 260 263 267 271 274 277 281 284 286 288 290 292 294 295
220 220 219 217 214 213 211 209 206 204 203 202 202 202 200 198 197 196 195 193 193 194 195 195 195 193 192 190 188 186 185 184 184 186 187 188 191 193 193 193 195 196 195 197 201 203 205 207 207 206 208 212 215 217 221 224 225 225 226 228 230 235 239 243 247 250 252 254 255 256 258 260 262 265 268 271 274 277 279 282 284 286 288 291 293 294 295
223 222 219 216 215 214 213 210 208 205 203 201 201 202 201 199 198 198 197 197 197 198 200 200 199 197 196 194 193 192 190 190 191 193 195 196 199 198 195 194 196 196 196 197 201 204 206 207 207 206 209 213 216 217 221 224 227 229 232 235 237 241 245 249 252 255 258 260 260 261 263 265 267 269 271 274 276 278 280 282 284 286 289 290 292 292 293
224 222 219 216 213 212 211 209 208 207 205 203 202 202 201 200 199 199 199 198 199 200 201 200 199 198 197 197 197 196 194 194 197 201 203 204 205 204 202 201 203 204 205 206 209 211 213 213 211 211 214 218 220 223 227 230 233 236 239 242 245 248 252 255 258 260 262 263 264 265 267 268 270 271 273 275 276 278 280 282 284 286 288 289 290 291 293
222 221 219 215 213 211 210 208 207 206 205 203 202 200 199 200 200 199 199 200 201 201 201 200 198 198 198 199 200 200 199 198 199 203 206 207 207 208 209 210 211 212 214 216 218 219 221 220 219 219 222 226 229 232 235 238 241 244 246 248 250 253 256 258 261 263 265 266 266 267 269 270 271 272 274 276 277 279 281 283 285 287 288 289 290 291 293
223 222 220 216 213 212 210 208 207 205 204 202 200 199 198 198 199 199 200 200 201 201 200 199 199 199 199 200 202 203 203 203 205 208 209 210 211 212 214 216 217 218 220 222 224 226 226 225 224 226 230 233 235 238 241 243 245 247 249 250 253 255 258 260 262 264 266 267 267 267 269 271 272 273 275 277 278 280 281 283 286 288 289 290 291 292 294
222 220 219 217 214 212 210 208 206 203 202 201 200 198 197 197 198 200 201 201 201 200 200 200 200 200 201 202 203 204 205 207 209 211 213 214 217 219 221 223 224 225 226 227 230 232 232 230 229 232 235 237 239 241 243 245 247 249 251 253 255 257 259 261 263 265 267 269 269 269 270 272 273 275 276 278 279 280 282 285 287 289 290 291 292 293 294
221 220 218 216 214 212 209 205 202 201 200 201 199 197 196 197 199 200 200 200 200 200 201 202 202 203 203 203 204 206 207 210 213 216 217 219 222 225 227 228 229 230 230 232 235 238 238 236 235 237 240 242 243 244 246 248 251 252 254 255 257 259 261 263 264 266 269 271 271 270 271 272 274 275 277 278 279 281 283 285 286 288 290 291 292 293 294
221 219 216 213 211 209 206 203 200 199 199 199 199 197 196 196 199 200 200 200 200 201 202 203 204 205 206 206 207 209 211 214 217 221 223 225 227 230 233 234 234 234 235 236 238 241 241 239 238 239 242 244 245 246 248 250 253 256 257 259 261 263 264 266 266 267 269 271 271 271 272 273 275 276 277 278 279 281 283 285 286 287 289 290 292 293 294